| time (UTC) | temp F | wind direction | speed MPH | gust MPH | rain 1hr in | rain 24hr in | rain mn in | humidity % | barometer mb |
| 20260902230530 | 69 | 221 | 2.0 | 6.0 | 0.00 | 0.00 | 0.00 | 41 | 1003.6 |
| 20260902230223 | 68 | 345 | 0.0 | 6.0 | 0.00 | 0.00 | 0.00 | 41 | 1003.7 |
| 20260902225542 | 69 | 352 | 2.0 | 6.0 | 0.00 | 0.00 | 0.00 | 41 | 1003.7 |
| 20260902225036 | 69 | 17 | 1.0 | 4.0 | 0.00 | 0.00 | 0.00 | 42 | 1003.8 |
| 20260902224626 | 69 | 311 | 1.0 | 4.0 | 0.00 | 0.00 | 0.00 | 42 | 1003.8 |
| 20260902224032 | 69 | 221 | 1.0 | 4.0 | 0.00 | 0.00 | 0.00 | 43 | 1003.9 |
| 20260902223542 | 69 | 88 | 1.0 | 5.0 | 0.00 | 0.00 | 0.00 | 43 | 1003.8 |
| 20260902223200 | 69 | 120 | 1.0 | 6.0 | 0.00 | 0.00 | 0.00 | 43 | 1003.9 |
| 20260902222549 | 69 | 232 | 1.0 | 8.0 | 0.00 | 0.00 | 0.00 | 43 | 1004.0 |
| 20260902222031 | 69 | 286 | 1.0 | 8.0 | 0.00 | 0.00 | 0.00 | 46 | 1004.0 |
| 20260902221645 | 69 | 44 | 3.0 | 8.0 | 0.00 | 0.00 | 0.00 | 45 | 1004.0 |
| 20260902221044 | 69 | 17 | 2.0 | 6.0 | 0.00 | 0.00 | 0.00 | 42 | 1004.0 |
| 20260902220528 | 69 | 352 | 1.0 | 6.0 | 0.00 | 0.00 | 0.00 | 43 | 1004.1 |
| 20260902220137 | 68 | 163 | 2.0 | 7.0 | 0.00 | 0.00 | 0.00 | 44 | 1004.3 |
| 20260902215532 | 68 | 40 | 1.0 | 6.0 | 0.00 | 0.00 | 0.00 | 45 | 1004.3 |
| 20260902215032 | 68 | 22 | 1.0 | 6.0 | 0.00 | 0.00 | 0.00 | 45 | 1004.7 |
| 20260902214659 | 69 | 29 | 1.0 | 8.0 | 0.00 | 0.00 | 0.00 | 46 | 1004.5 |
| 20260902214030 | 69 | 5 | 1.0 | 9.0 | 0.00 | 0.00 | 0.00 | 43 | 1004.9 |
| 20260902213542 | 70 | 18 | 2.0 | 9.0 | 0.00 | 0.00 | 0.00 | 43 | 1004.7 |
| 20260902213144 | 70 | 75 | 1.0 | 7.0 | 0.00 | 0.00 | 0.00 | 43 | 1004.7 |
| 20260902212537 | 70 | 76 | 1.0 | 6.0 | 0.00 | 0.00 | 0.00 | 44 | 1004.9 |
| 20260902212037 | 71 | 190 | 0.0 | 8.0 | 0.00 | 0.00 | 0.00 | 43 | 1005.0 |
| 20260902211618 | 71 | 107 | 2.0 | 6.0 | 0.00 | 0.00 | 0.00 | 42 | 1005.1 |
| 20260902211024 | 71 | 211 | 2.0 | 7.0 | 0.00 | 0.00 | 0.00 | 43 | 1005.3 |
| 20260902210540 | 71 | 53 | 3.0 | 7.0 | 0.00 | 0.00 | 0.00 | 43 | 1005.1 |
| 20260902210144 | 71 | 122 | 2.0 | 8.0 | 0.00 | 0.00 | 0.00 | 44 | 1005.0 |
| 20260902205538 | 71 | 34 | 3.0 | 10.0 | 0.00 | 0.00 | 0.00 | 43 | 1005.2 |
| 20260902205047 | 72 | 18 | 3.0 | 10.0 | 0.00 | 0.00 | 0.00 | 43 | 1005.1 |
| 20260902204610 | 72 | 47 | 2.0 | 9.0 | 0.00 | 0.00 | 0.00 | 43 | 1005.1 |
| 20260902204024 | 72 | 65 | 1.0 | 10.0 | 0.00 | 0.00 | 0.00 | 44 | 1004.9 |
| 20260902203531 | 71 | 71 | 2.0 | 10.0 | 0.00 | 0.00 | 0.00 | 45 | 1004.9 |
| 20260902203112 | 72 | 165 | 3.0 | 9.0 | 0.00 | 0.00 | 0.00 | 43 | 1005.1 |
| 20260902202524 | 72 | 300 | 2.0 | 10.0 | 0.00 | 0.00 | 0.00 | 44 | 1005.1 |
| 20260902202032 | 72 | 71 | 2.0 | 10.0 | 0.00 | 0.00 | 0.00 | 44 | 1005.5 |
| 20260902201627 | 73 | 331 | 1.0 | 7.0 | 0.00 | 0.00 | 0.00 | 44 | 1005.6 |
| 20260902201042 | 73 | 312 | 0.0 | 5.0 | 0.00 | 0.00 | 0.00 | 44 | 1005.5 |
| 20260902200546 | 72 | 360 | 2.0 | 6.0 | 0.00 | 0.00 | 0.00 | 43 | 1005.5 |
| 20260902200132 | 72 | 30 | 1.0 | 6.0 | 0.00 | 0.00 | 0.00 | 46 | 1005.6 |
| 20260902195527 | 72 | 26 | 1.0 | 8.0 | 0.00 | 0.00 | 0.00 | 45 | 1005.6 |
| 20260902195023 | 72 | 29 | 3.0 | 8.0 | 0.00 | 0.00 | 0.00 | 46 | 1005.8 |
| 20260902194637 | 71 | 9 | 2.0 | 6.0 | 0.00 | 0.00 | 0.00 | 46 | 1005.8 |
| 20260902194045 | 71 | 38 | 2.0 | 6.0 | 0.00 | 0.00 | 0.00 | 45 | 1005.7 |
| 20260902193526 | 71 | 19 | 1.0 | 6.0 | 0.00 | 0.00 | 0.00 | 48 | 1005.7 |
| 20260902193108 | 70 | 281 | 1.0 | 6.0 | 0.00 | 0.00 | 0.00 | 48 | 1005.8 |
| 20260902192546 | 70 | 352 | 3.0 | 7.0 | 0.00 | 0.00 | 0.00 | 49 | 1005.8 |
| 20260902192028 | 69 | 331 | 2.0 | 8.0 | 0.00 | 0.00 | 0.00 | 49 | 1005.6 |
| 20260902191625 | 69 | 151 | 3.0 | 9.0 | 0.00 | 0.00 | 0.00 | 48 | 1005.7 |
| 20260902191042 | 69 | 5 | 3.0 | 8.0 | 0.00 | 0.00 | 0.00 | 48 | 1005.7 |
| 20260902190524 | 69 | 352 | 2.0 | 5.0 | 0.00 | 0.00 | 0.00 | 49 | 1005.8 |
| 20260902190109 | 69 | 60 | 2.0 | 7.0 | 0.00 | 0.00 | 0.00 | 49 | 1006.0 |
| 20260902185530 | 70 | 46 | 1.0 | 10.0 | 0.00 | 0.00 | 0.00 | 49 | 1006.1 |
| 20260902185037 | 70 | 333 | 3.0 | 10.0 | 0.00 | 0.00 | 0.00 | 48 | 1005.9 |
| 20260902184625 | 71 | 52 | 3.0 | 5.0 | 0.00 | 0.00 | 0.00 | 48 | 1005.8 |
| 20260902184047 | 70 | 57 | 1.0 | 6.0 | 0.00 | 0.00 | 0.00 | 54 | 1005.8 |
| 20260902183523 | 69 | 67 | 3.0 | 6.0 | 0.00 | 0.00 | 0.00 | 51 | 1005.8 |
| 20260902183136 | 69 | 27 | 2.0 | 6.0 | 0.00 | 0.00 | 0.00 | 52 | 1005.7 |
| 20260902182532 | 70 | 128 | 1.0 | 5.0 | 0.00 | 0.00 | 0.00 | 53 | 1005.7 |
| 20260902182037 | 69 | 67 | 2.0 | 7.0 | 0.00 | 0.00 | 0.00 | 55 | 1005.6 |
| 20260902181616 | 69 | 29 | 2.0 | 7.0 | 0.00 | 0.00 | 0.00 | 56 | 1005.7 |
| 20260902181033 | 68 | 232 | 1.0 | 6.0 | 0.00 | 0.00 | 0.00 | 61 | 1005.8 |
| 20260902180525 | 68 | 126 | 2.0 | 6.0 | 0.00 | 0.00 | 0.00 | 58 | 1005.9 |
| 20260902180145 | 67 | 104 | 1.0 | 7.0 | 0.00 | 0.00 | 0.00 | 60 | 1005.8 |
| 20260902175525 | 66 | 213 | 1.0 | 5.0 | 0.00 | 0.00 | 0.00 | 60 | 1005.9 |
| 20260902175035 | 66 | 177 | 1.0 | 4.0 | 0.00 | 0.00 | 0.00 | 61 | 1005.8 |
| 20260902174624 | 65 | 119 | 0.0 | 3.0 | 0.00 | 0.00 | 0.00 | 62 | 1005.6 |
| 20260902174036 | 65 | 277 | 0.0 | 5.0 | 0.00 | 0.00 | 0.00 | 63 | 1005.6 |
| 20260902173528 | 65 | 105 | 0.0 | 5.0 | 0.00 | 0.00 | 0.00 | 64 | 1005.5 |
| 20260902173133 | 65 | 89 | 0.0 | 3.0 | 0.00 | 0.00 | 0.00 | 64 | 1005.6 |
| 20260902172532 | 65 | 338 | 1.0 | 3.0 | 0.00 | 0.00 | 0.00 | 67 | 1005.6 |
| 20260902172024 | 64 | 22 | 0.0 | 3.0 | 0.00 | 0.00 | 0.00 | 69 | 1005.8 |
| 20260902171618 | 64 | 163 | 0.0 | 4.0 | 0.00 | 0.00 | 0.00 | 69 | 1005.8 |
| 20260902171047 | 64 | 342 | 0.0 | 4.0 | 0.00 | 0.00 | 0.00 | 67 | 1005.8 |
| 20260902170545 | 64 | 352 | 0.0 | 3.0 | 0.00 | 0.00 | 0.00 | 68 | 1005.7 |
| 20260902170131 | 65 | 17 | 0.0 | 3.0 | 0.00 | 0.00 | 0.00 | 68 | 1005.7 |
| 20260902165533 | 64 | 189 | 0.0 | 3.0 | 0.00 | 0.00 | 0.00 | 70 | 1005.8 |
| 20260902165028 | 64 | 54 | 1.0 | 3.0 | 0.00 | 0.00 | 0.00 | 71 | 1005.7 |
| 20260902164631 | 63 | 5 | 0.0 | 0.0 | 0.00 | 0.00 | 0.00 | 74 | 1005.5 |
| 20260902164042 | 62 | 340 | 0.0 | 2.0 | 0.00 | 0.00 | 0.00 | 72 | 1005.7 |
| 20260902163528 | 62 | 340 | 0.0 | 2.0 | 0.00 | 0.00 | 0.00 | 72 | 1005.6 |
| 20260902163135 | 62 | 17 | 0.0 | 3.0 | 0.00 | 0.00 | 0.00 | 74 | 1005.8 |
| 20260902162528 | 61 | 5 | 1.0 | 3.0 | 0.00 | 0.00 | 0.00 | 72 | 1005.5 |
| 20260902162034 | 61 | 336 | 0.0 | 0.0 | 0.00 | 0.00 | 0.00 | 74 | 1005.8 |
| 20260902161545 | 61 | 115 | 0.0 | 0.0 | 0.00 | 0.00 | 0.00 | 75 | 1005.9 |
| 20260902161038 | 61 | 115 | 0.0 | 0.0 | 0.00 | 0.00 | 0.00 | 73 | 1006.0 |
| 20260902160525 | 60 | 124 | 0.0 | 0.0 | 0.00 | 0.00 | 0.00 | 76 | 1006.0 |
| 20260902160143 | 60 | 123 | 0.0 | 0.0 | 0.00 | 0.00 | 0.00 | 76 | 1006.0 |
| 20260902155525 | 60 | 51 | 0.0 | 0.0 | 0.00 | 0.00 | 0.00 | 78 | 1006.1 |
| 20260902155029 | 59 | 170 | 0.0 | 0.0 | 0.00 | 0.00 | 0.00 | 80 | 1006.2 |
| 20260902154632 | 58 | 159 | 0.0 | 0.0 | 0.00 | 0.00 | 0.00 | 81 | 1006.2 |
| 20260902154023 | 58 | 152 | 0.0 | 2.0 | 0.00 | 0.00 | 0.00 | 82 | 1006.2 |
| 20260902153519 | 58 | 154 | 0.0 | 2.0 | 0.00 | 0.00 | 0.00 | 83 | 1006.2 |
| 20260902153103 | 58 | 207 | 0.0 | 2.0 | 0.00 | 0.00 | 0.00 | 84 | 1006.0 |
| 20260902152525 | 58 | 96 | 0.0 | 0.0 | 0.00 | 0.00 | 0.00 | 86 | 1006.0 |
| 20260902152031 | 58 | 96 | 0.0 | 3.0 | 0.00 | 0.00 | 0.00 | 87 | 1006.1 |
| 20260902151559 | 57 | 229 | 0.0 | 3.0 | 0.00 | 0.00 | 0.00 | 81 | 1006.1 |
| 20260902151042 | 57 | 252 | 0.0 | 3.0 | 0.00 | 0.00 | 0.00 | 84 | 1006.0 |
| 20260902150522 | 57 | 244 | 1.0 | 3.0 | 0.00 | 0.00 | 0.00 | 86 | 1006.1 |
| 20260902150106 | 56 | 271 | 0.0 | 1.0 | 0.00 | 0.00 | 0.00 | 89 | 1006.2 |
| 20260902145525 | 56 | 285 | 0.0 | 4.0 | 0.00 | 0.00 | 0.00 | 88 | 1006.2 |
| 20260902145042 | 56 | 285 | 2.0 | 4.0 | 0.00 | 0.00 | 0.00 | 88 | 1006.3 |
| 20260902144632 | 56 | 224 | 0.0 | 2.0 | 0.00 | 0.00 | 0.00 | 87 | 1006.9 |
| 20260902144037 | 56 | 288 | 1.0 | 2.0 | 0.00 | 0.00 | 0.00 | 87 | 1006.8 |
| 20260902143532 | 56 | 174 | 0.0 | 2.0 | 0.00 | 0.00 | 0.00 | 87 | 1006.7 |
| 20260902143124 | 56 | 71 | 0.0 | 2.0 | 0.00 | 0.00 | 0.00 | 87 | 1006.3 |
| 20260902142518 | 56 | 128 | 0.0 | 2.0 | 0.00 | 0.00 | 0.00 | 87 | 1006.5 |
| 20260902142020 | 56 | 73 | 0.0 | 5.0 | 0.00 | 0.00 | 0.00 | 87 | 1006.3 |
| 20260902141608 | 55 | 132 | 0.0 | 4.0 | 0.00 | 0.00 | 0.00 | 88 | 1006.4 |
| 20260902141038 | 55 | 233 | 2.0 | 3.0 | 0.00 | 0.00 | 0.00 | 87 | 1006.1 |
| 20260902140538 | 55 | 220 | 1.0 | 3.0 | 0.00 | 0.00 | 0.00 | 86 | 1005.8 |
| 20260902140139 | 56 | 254 | 1.0 | 3.0 | 0.00 | 0.00 | 0.00 | 86 | 1006.4 |
| 20260902135524 | 56 | 227 | 0.0 | 0.0 | 0.00 | 0.00 | 0.00 | 85 | 1006.4 |
| 20260902135023 | 55 | 228 | 0.0 | 0.0 | 0.00 | 0.00 | 0.00 | 84 | 1006.6 |
| 20260902134642 | 55 | 184 | 0.0 | 0.0 | 0.00 | 0.00 | 0.00 | 84 | 1006.7 |
| 20260902134025 | 55 | 76 | 0.0 | 3.0 | 0.00 | 0.00 | 0.00 | 85 | 1006.8 |
| 20260902133525 | 55 | 76 | 0.0 | 3.0 | 0.00 | 0.00 | 0.00 | 85 | 1006.5 |
| 20260902133100 | 55 | 254 | 0.0 | 3.0 | 0.00 | 0.00 | 0.00 | 85 | 1006.2 |
| 20260902132526 | 55 | 251 | 0.0 | 2.0 | 0.00 | 0.00 | 0.00 | 85 | 1006.1 |
| 20260902132039 | 55 | 259 | 0.0 | 2.0 | 0.00 | 0.00 | 0.00 | 85 | 1005.9 |
| 20260902131542 | 55 | 260 | 0.0 | 2.0 | 0.00 | 0.00 | 0.00 | 86 | 1005.8 |
| 20260902131027 | 55 | 263 | 1.0 | 4.0 | 0.00 | 0.00 | 0.00 | 85 | 1005.8 |
| 20260902130528 | 55 | 265 | 0.0 | 4.0 | 0.00 | 0.00 | 0.00 | 85 | 1005.9 |
| 20260902130130 | 55 | 223 | 3.0 | 4.0 | 0.00 | 0.00 | 0.00 | 85 | 1006.0 |
| 20260902125530 | 55 | 253 | 1.0 | 3.0 | 0.00 | 0.00 | 0.00 | 85 | 1006.2 |
| 20260902125051 | 55 | 241 | 1.0 | 3.0 | 0.00 | 0.00 | 0.00 | 85 | 1006.3 |
| 20260902124624 | 55 | 228 | 0.0 | 2.0 | 0.00 | 0.00 | 0.00 | 85 | 1006.5 |
| 20260902124035 | 55 | 228 | 0.0 | 2.0 | 0.00 | 0.00 | 0.00 | 85 | 1006.6 |
| 20260902123525 | 55 | 234 | 0.0 | 2.0 | 0.00 | 0.00 | 0.00 | 85 | 1006.5 |
| 20260902123121 | 55 | 228 | 0.0 | 3.0 | 0.00 | 0.00 | 0.00 | 85 | 1006.4 |
| 20260902122531 | 55 | 224 | 2.0 | 3.0 | 0.00 | 0.00 | 0.00 | 85 | 1006.4 |
| 20260902122040 | 55 | 219 | 2.0 | 3.0 | 0.00 | 0.00 | 0.00 | 86 | 1006.0 |
| 20260902121601 | 55 | 214 | 1.0 | 3.0 | 0.00 | 0.00 | 0.00 | 85 | 1006.1 |
| 20260902121021 | 55 | 238 | 0.0 | 4.0 | 0.00 | 0.00 | 0.00 | 85 | 1006.0 |
| 20260902120526 | 55 | 261 | 1.0 | 4.0 | 0.00 | 0.00 | 0.00 | 85 | 1005.9 |
| 20260902120125 | 55 | 222 | 0.0 | 3.0 | 0.00 | 0.00 | 0.00 | 86 | 1005.9 |
| 20260902115525 | 55 | 234 | 1.0 | 3.0 | 0.00 | 0.00 | 0.00 | 86 | 1006.0 |
| 20260902115019 | 55 | 221 | 0.0 | 4.0 | 0.00 | 0.00 | 0.00 | 86 | 1006.0 |
| 20260902114625 | 56 | 200 | 1.0 | 4.0 | 0.00 | 0.00 | 0.00 | 86 | 1006.0 |
| 20260902114036 | 56 | 239 | 2.0 | 4.0 | 0.00 | 0.00 | 0.00 | 86 | 1006.0 |
| 20260902113532 | 55 | 301 | 0.0 | 3.0 | 0.00 | 0.00 | 0.00 | 87 | 1006.4 |
| 20260902113123 | 55 | 271 | 1.0 | 3.0 | 0.00 | 0.00 | 0.00 | 87 | 1006.4 |
| 20260902112525 | 55 | 229 | 1.0 | 3.0 | 0.00 | 0.00 | 0.00 | 87 | 1006.1 |
| 20260902112025 | 55 | 224 | 1.0 | 3.0 | 0.00 | 0.00 | 0.00 | 88 | 1006.1 |
| 20260902111639 | 55 | 232 | 1.0 | 3.0 | 0.00 | 0.00 | 0.00 | 88 | 1006.1 |
| 20260902111046 | 55 | 244 | 1.0 | 3.0 | 0.00 | 0.00 | 0.00 | 87 | 1006.2 |
| 20260902110530 | 55 | 242 | 1.0 | 4.0 | 0.00 | 0.00 | 0.00 | 87 | 1006.3 |
| 20260902110036 | 55 | 217 | 3.0 | 4.0 | 0.00 | 0.00 | 0.00 | 87 | 1006.2 |
| 20260902105523 | 55 | 227 | 2.0 | 3.0 | 0.00 | 0.00 | 0.00 | 87 | 1006.2 |
| 20260902105025 | 55 | 232 | 2.0 | 4.0 | 0.00 | 0.00 | 0.00 | 87 | 1006.3 |
| 20260902104643 | 55 | 249 | 1.0 | 4.0 | 0.00 | 0.00 | 0.00 | 88 | 1006.2 |
| 20260902104021 | 55 | 239 | 1.0 | 4.0 | 0.00 | 0.00 | 0.00 | 88 | 1006.4 |
| 20260902103524 | 55 | 183 | 2.0 | 4.0 | 0.00 | 0.00 | 0.00 | 88 | 1006.4 |
| 20260902103154 | 56 | 225 | 2.0 | 4.0 | 0.00 | 0.00 | 0.00 | 88 | 1006.4 |
| 20260902102524 | 56 | 245 | 1.0 | 3.0 | 0.00 | 0.00 | 0.00 | 88 | 1006.5 |
| 20260902102029 | 56 | 230 | 2.0 | 4.0 | 0.00 | 0.00 | 0.00 | 88 | 1006.7 |
| 20260902101633 | 56 | 215 | 2.0 | 3.0 | 0.00 | 0.00 | 0.00 | 89 | 1006.6 |
| 20260902101040 | 56 | 252 | 0.0 | 4.0 | 0.00 | 0.00 | 0.00 | 89 | 1006.6 |
| 20260902100521 | 56 | 223 | 2.0 | 4.0 | 0.00 | 0.00 | 0.00 | 89 | 1006.7 |
| 20260902100119 | 56 | 240 | 2.0 | 4.0 | 0.00 | 0.00 | 0.00 | 90 | 1006.9 |
| 20260902095520 | 56 | 260 | 1.0 | 3.0 | 0.00 | 0.00 | 0.00 | 90 | 1006.9 |
| 20260902095043 | 56 | 229 | 1.0 | 3.0 | 0.00 | 0.00 | 0.00 | 90 | 1007.0 |
| 20260902094615 | 56 | 227 | 2.0 | 3.0 | 0.00 | 0.00 | 0.00 | 90 | 1007.1 |
| 20260902094030 | 56 | 244 | 1.0 | 3.0 | 0.00 | 0.00 | 0.00 | 90 | 1007.1 |
| 20260902093524 | 56 | 256 | 1.0 | 3.0 | 0.00 | 0.00 | 0.00 | 89 | 1007.1 |
| 20260902093138 | 56 | 241 | 1.0 | 4.0 | 0.00 | 0.00 | 0.00 | 88 | 1007.2 |
| 20260902092532 | 57 | 201 | 1.0 | 4.0 | 0.00 | 0.00 | 0.00 | 87 | 1007.3 |
| 20260902092037 | 57 | 227 | 1.0 | 3.0 | 0.00 | 0.00 | 0.00 | 86 | 1007.2 |
| 20260902091630 | 58 | 224 | 1.0 | 3.0 | 0.00 | 0.00 | 0.00 | 85 | 1007.4 |
| 20260902091031 | 58 | 214 | 1.0 | 3.0 | 0.00 | 0.00 | 0.00 | 82 | 1007.4 |
| 20260902090518 | 58 | 198 | 0.0 | 2.0 | 0.00 | 0.00 | 0.00 | 80 | 1007.6 |
| 20260902090123 | 58 | 205 | 0.0 | 3.0 | 0.00 | 0.00 | 0.00 | 81 | 1007.6 |
| 20260902085547 | 58 | 223 | 1.0 | 3.0 | 0.00 | 0.00 | 0.00 | 81 | 1007.6 |
| 20260902085036 | 58 | 232 | 0.0 | 0.0 | 0.00 | 0.00 | 0.00 | 81 | 1007.5 |
| 20260902084552 | 58 | 241 | 0.0 | 6.0 | 0.00 | 0.00 | 0.00 | 82 | 1007.4 |
| 20260902084024 | 58 | 307 | 1.0 | 6.0 | 0.00 | 0.00 | 0.00 | 81 | 1007.4 |
| 20260902083520 | 58 | 225 | 1.0 | 3.0 | 0.00 | 0.00 | 0.00 | 82 | 1007.5 |
| 20260902083133 | 58 | 198 | 0.0 | 1.0 | 0.00 | 0.00 | 0.00 | 82 | 1007.5 |
| 20260902082527 | 58 | 225 | 0.0 | 1.0 | 0.00 | 0.00 | 0.00 | 83 | 1007.5 |
| 20260902082028 | 58 | 240 | 0.0 | 0.0 | 0.00 | 0.00 | 0.00 | 83 | 1007.6 |
| 20260902081558 | 58 | 235 | 0.0 | 3.0 | 0.00 | 0.00 | 0.00 | 83 | 1007.5 |
| 20260902081040 | 58 | 250 | 0.0 | 3.0 | 0.00 | 0.00 | 0.00 | 83 | 1007.6 |
| 20260902080522 | 57 | 192 | 0.0 | 3.0 | 0.00 | 0.00 | 0.00 | 84 | 1007.6 |
| 20260902080135 | 57 | 213 | 1.0 | 3.0 | 0.00 | 0.00 | 0.00 | 84 | 1007.6 |
| 20260902075535 | 57 | 229 | 0.0 | 0.0 | 0.00 | 0.00 | 0.00 | 85 | 1007.4 |
| 20260902075031 | 57 | 238 | 0.0 | 0.0 | 0.00 | 0.00 | 0.00 | 85 | 1007.5 |
| 20260902074637 | 57 | 236 | 0.0 | 0.0 | 0.00 | 0.00 | 0.00 | 86 | 1007.5 |
| 20260902074041 | 57 | 236 | 0.0 | 0.0 | 0.00 | 0.00 | 0.00 | 86 | 1007.5 |
| 20260902073531 | 57 | 271 | 0.0 | 0.0 | 0.00 | 0.00 | 0.00 | 86 | 1007.5 |
| 20260902073113 | 57 | 271 | 0.0 | 0.0 | 0.00 | 0.00 | 0.00 | 86 | 1007.5 |
| 20260902072518 | 57 | 271 | 0.0 | 0.0 | 0.00 | 0.00 | 0.00 | 86 | 1007.4 |
| 20260902072044 | 57 | 271 | 0.0 | 0.0 | 0.00 | 0.00 | 0.00 | 85 | 1007.3 |
| 20260902071553 | 57 | 271 | 0.0 | 0.0 | 0.00 | 0.00 | 0.00 | 86 | 1007.3 |
| 20260902071030 | 57 | 271 | 0.0 | 2.0 | 0.00 | 0.00 | 0.00 | 85 | 1007.4 |
| 20260902070546 | 57 | 272 | 0.0 | 3.0 | 0.00 | 0.00 | 0.00 | 86 | 1007.4 |
| 20260902070127 | 57 | 275 | 1.0 | 3.0 | 0.00 | 0.00 | 0.00 | 85 | 1007.4 |
| 20260902065524 | 58 | 253 | 0.0 | 0.0 | 0.00 | 0.00 | 0.00 | 85 | 1007.4 |
| 20260902065030 | 58 | 249 | 0.0 | 2.0 | 0.00 | 0.00 | 0.00 | 84 | 1007.4 |
| 20260902064634 | 58 | 278 | 0.0 | 2.0 | 0.00 | 0.00 | 0.00 | 83 | 1007.5 |
| 20260902064024 | 59 | 304 | 0.0 | 2.0 | 0.00 | 0.00 | 0.00 | 82 | 1007.5 |
| 20260902063524 | 59 | 303 | 0.0 | 3.0 | 0.00 | 0.00 | 0.00 | 81 | 1007.5 |
| 20260902063124 | 59 | 266 | 1.0 | 3.0 | 0.00 | 0.00 | 0.00 | 80 | 1007.5 |
| 20260902062539 | 59 | 261 | 0.0 | 3.0 | 0.00 | 0.00 | 0.00 | 81 | 1007.4 |
| 20260902062026 | 60 | 261 | 0.0 | 3.0 | 0.00 | 0.00 | 0.00 | 80 | 1007.4 |
| 20260902061602 | 60 | 256 | 0.0 | 3.0 | 0.00 | 0.00 | 0.00 | 77 | 1007.5 |
| 20260902061021 | 60 | 308 | 1.0 | 3.0 | 0.00 | 0.00 | 0.00 | 76 | 1007.5 |
| 20260902060530 | 60 | 252 | 2.0 | 3.0 | 0.00 | 0.00 | 0.00 | 75 | 1007.6 |
| 20260902060125 | 60 | 248 | 0.0 | 3.0 | 0.00 | 0.00 | 0.00 | 75 | 1007.6 |
| 20260902055536 | 60 | 237 | 0.0 | 2.0 | 0.00 | 0.00 | 0.00 | 75 | 1007.6 |
| 20260902055024 | 61 | 295 | 0.0 | 3.0 | 0.00 | 0.00 | 0.00 | 75 | 1007.5 |
| 20260902054603 | 61 | 253 | 1.0 | 3.0 | 0.00 | 0.00 | 0.00 | 73 | 1007.5 |
| 20260902054025 | 61 | 252 | 1.0 | 3.0 | 0.00 | 0.00 | 0.00 | 72 | 1007.7 |
| 20260902053518 | 61 | 319 | 1.0 | 3.0 | 0.00 | 0.00 | 0.00 | 72 | 1007.7 |
| 20260902053133 | 61 | 264 | 1.0 | 3.0 | 0.00 | 0.00 | 0.00 | 73 | 1007.7 |
| 20260902052526 | 61 | 213 | 0.0 | 3.0 | 0.00 | 0.00 | 0.00 | 73 | 1007.7 |
| 20260902052027 | 61 | 176 | 1.0 | 3.0 | 0.00 | 0.00 | 0.00 | 73 | 1007.7 |
| 20260902051623 | 62 | 261 | 1.0 | 4.0 | 0.00 | 0.00 | 0.00 | 74 | 1007.7 |
| 20260902051019 | 62 | 215 | 2.0 | 4.0 | 0.00 | 0.00 | 0.00 | 74 | 1007.8 |
| 20260902050537 | 63 | 220 | 0.0 | 3.0 | 0.00 | 0.00 | 0.00 | 72 | 1007.7 |
| 20260902050142 | 63 | 281 | 0.0 | 3.0 | 0.00 | 0.00 | 0.00 | 69 | 1007.9 |
| 20260902045533 | 64 | 290 | 0.0 | 3.0 | 0.00 | 0.00 | 0.00 | 67 | 1007.9 |
| 20260902045037 | 64 | 338 | 1.0 | 3.0 | 0.00 | 0.00 | 0.00 | 65 | 1007.5 |
| 20260902044633 | 65 | 313 | 0.0 | 4.0 | 0.00 | 0.00 | 0.00 | 63 | 1007.3 |
| 20260902044021 | 65 | 331 | 2.0 | 4.0 | 0.00 | 0.00 | 0.00 | 59 | 1007.4 |
| 20260902043536 | 65 | 253 | 0.0 | 2.0 | 0.00 | 0.00 | 0.00 | 59 | 1007.2 |
| 20260902043132 | 65 | 227 | 0.0 | 3.0 | 0.00 | 0.00 | 0.00 | 61 | 1007.2 |
| 20260902042530 | 65 | 229 | 1.0 | 4.0 | 0.00 | 0.00 | 0.00 | 59 | 1007.2 |
| 20260902042050 | 65 | 268 | 0.0 | 5.0 | 0.00 | 0.00 | 0.00 | 59 | 1007.4 |
| 20260902041638 | 65 | 233 | 2.0 | 5.0 | 0.00 | 0.00 | 0.00 | 61 | 1007.2 |
| 20260902041021 | 66 | 244 | 1.0 | 3.0 | 0.00 | 0.00 | 0.00 | 61 | 1007.1 |
| 20260902040526 | 67 | 240 | 1.0 | 3.0 | 0.00 | 0.00 | 0.00 | 55 | 1007.2 |
| 20260902040217 | 68 | 304 | 1.0 | 2.0 | 0.00 | 0.00 | 0.00 | 55 | 1007.4 |
| 20260902035533 | 68 | 67 | 0.0 | 7.0 | 0.00 | 0.00 | 0.00 | 51 | 1007.5 |
| 20260902035051 | 69 | 118 | 1.0 | 10.0 | 0.00 | 0.00 | 0.00 | 46 | 1007.3 |
| 20260902034628 | 70 | 90 | 4.0 | 10.0 | 0.00 | 0.00 | 0.00 | 41 | 1007.2 |
| 20260902034025 | 69 | 287 | 1.0 | 5.0 | 0.00 | 0.00 | 0.00 | 40 | 1007.3 |
| 20260902033524 | 69 | 256 | 0.0 | 2.0 | 0.00 | 0.00 | 0.00 | 40 | 1006.7 |
| 20260902033141 | 69 | 266 | 0.0 | 1.0 | 0.00 | 0.00 | 0.00 | 41 | 1006.4 |
| 20260902032542 | 69 | 223 | 0.0 | 0.0 | 0.00 | 0.00 | 0.00 | 40 | 1006.2 |
| 20260902032032 | 69 | 228 | 0.0 | 1.0 | 0.00 | 0.00 | 0.00 | 40 | 1006.1 |
| 20260902031609 | 70 | 254 | 0.0 | 2.0 | 0.00 | 0.00 | 0.00 | 40 | 1006.0 |
| 20260902031029 | 70 | 325 | 0.0 | 2.0 | 0.00 | 0.00 | 0.00 | 41 | 1005.8 |
| 20260902030550 | 70 | 33 | 0.0 | 1.0 | 0.00 | 0.00 | 0.00 | 40 | 1005.8 |
| 20260902030145 | 71 | 235 | 0.0 | 1.0 | 0.00 | 0.00 | 0.00 | 39 | 1005.8 |
| 20260902025534 | 71 | 235 | 0.0 | 1.0 | 0.00 | 0.00 | 0.00 | 39 | 1005.7 |
| 20260902025038 | 71 | 246 | 0.0 | 1.0 | 0.00 | 0.00 | 0.00 | 39 | 1005.6 |
| 20260902024617 | 71 | 223 | 0.0 | 1.0 | 0.00 | 0.00 | 0.00 | 39 | 1005.7 |
| 20260902024025 | 72 | 169 | 0.0 | 1.0 | 0.00 | 0.00 | 0.00 | 39 | 1005.6 |
| 20260902023532 | 72 | 167 | 0.0 | 1.0 | 0.00 | 0.00 | 0.00 | 39 | 1005.4 |
| 20260902023124 | 72 | 167 | 0.0 | 1.0 | 0.00 | 0.00 | 0.00 | 39 | 1005.4 |
| 20260902022526 | 73 | 157 | 0.0 | 1.0 | 0.00 | 0.00 | 0.00 | 38 | 1005.4 |
| 20260902022027 | 73 | 157 | 0.0 | 1.0 | 0.00 | 0.00 | 0.00 | 37 | 1005.4 |
| 20260902021628 | 73 | 157 | 0.0 | 2.0 | 0.00 | 0.00 | 0.00 | 36 | 1005.3 |
| 20260902021035 | 74 | 143 | 0.0 | 3.0 | 0.00 | 0.00 | 0.00 | 36 | 1005.1 |
| 20260902020529 | 74 | 136 | 1.0 | 3.0 | 0.00 | 0.00 | 0.00 | 35 | 1005.1 |
| 20260902020135 | 75 | 147 | 0.0 | 3.0 | 0.00 | 0.00 | 0.00 | 34 | 1005.2 |
| 20260902015537 | 75 | 167 | 0.0 | 4.0 | 0.00 | 0.00 | 0.00 | 35 | 1005.2 |
| 20260902015041 | 76 | 92 | 0.0 | 4.0 | 0.00 | 0.00 | 0.00 | 34 | 1005.0 |
| 20260902014643 | 76 | 121 | 0.0 | 4.0 | 0.00 | 0.00 | 0.00 | 34 | 1005.0 |
| 20260902014041 | 76 | 136 | 2.0 | 4.0 | 0.00 | 0.00 | 0.00 | 33 | 1005.1 |
| 20260902013519 | 76 | 192 | 2.0 | 6.0 | 0.00 | 0.00 | 0.00 | 33 | 1005.1 |
| 20260902013133 | 77 | 161 | 2.0 | 6.0 | 0.00 | 0.00 | 0.00 | 32 | 1005.1 |
| 20260902012521 | 77 | 121 | 1.0 | 5.0 | 0.00 | 0.00 | 0.00 | 32 | 1005.3 |
| 20260902012037 | 77 | 130 | 1.0 | 5.0 | 0.00 | 0.00 | 0.00 | 32 | 1005.2 |
| 20260902011605 | 78 | 110 | 1.0 | 5.0 | 0.00 | 0.00 | 0.00 | 32 | 1005.2 |
| 20260902011024 | 78 | 309 | 0.0 | 5.0 | 0.00 | 0.00 | 0.00 | 31 | 1005.1 |
| 20260902010530 | 79 | 197 | 0.0 | 5.0 | 0.00 | 0.00 | 0.00 | 31 | 1005.2 |
| 20260902010121 | 79 | 240 | 0.0 | 6.0 | 0.00 | 0.00 | 0.00 | 30 | 1005.2 |
| 20260902005524 | 80 | 229 | 1.0 | 6.0 | 0.00 | 0.00 | 0.00 | 30 | 1005.2 |
| 20260902005025 | 80 | 347 | 0.0 | 3.0 | 0.00 | 0.00 | 0.00 | 30 | 1005.2 |
| 20260902004610 | 80 | 114 | 1.0 | 3.0 | 0.00 | 0.00 | 0.00 | 29 | 1005.1 |
| 20260902004038 | 81 | 333 | 0.0 | 7.0 | 0.00 | 0.00 | 0.00 | 29 | 1005.2 |
| 20260902003537 | 81 | 313 | 2.0 | 7.0 | 0.00 | 0.00 | 0.00 | 28 | 1005.3 |
| 20260902003147 | 81 | 261 | 1.0 | 8.0 | 0.00 | 0.00 | 0.00 | 28 | 1005.2 |
| 20260902002532 | 82 | 98 | 2.0 | 8.0 | 0.00 | 0.00 | 0.00 | 28 | 1005.4 |
| 20260902002037 | 82 | 159 | 1.0 | 5.0 | 0.00 | 0.00 | 0.00 | 28 | 1005.4 |
| 20260902001626 | 83 | 154 | 2.0 | 5.0 | 0.00 | 0.00 | 0.00 | 27 | 1005.4 |
| 20260902001037 | 83 | 190 | 1.0 | 5.0 | 0.00 | 0.00 | 0.00 | 27 | 1005.5 |
| 20260902000531 | 84 | 328 | 2.0 | 5.0 | 0.00 | 0.00 | 0.00 | 27 | 1005.5 |
| 20260902000201 | 83 | 87 | 1.0 | 5.0 | 0.00 | 0.00 | 0.00 | 27 | 1005.5 |
| 20260901235542 | 83 | 230 | 2.0 | 5.0 | 0.00 | 0.00 | 0.00 | 27 | 1005.5 |
| 20260901235021 | 83 | 180 | 0.0 | 8.0 | 0.00 | 0.00 | 0.00 | 27 | 1005.4 |
| 20260901234650 | 82 | 32 | 2.0 | 8.0 | 0.00 | 0.00 | 0.00 | 26 | 1005.6 |
| 20260901234032 | 82 | 213 | 1.0 | 7.0 | 0.00 | 0.00 | 0.00 | 28 | 1005.5 |
| 20260901233542 | 82 | 192 | 2.0 | 7.0 | 0.00 | 0.00 | 0.00 | 27 | 1005.6 |
| 20260901233126 | 82 | 71 | 1.0 | 7.0 | 0.00 | 0.00 | 0.00 | 27 | 1005.6 |
| 20260901232533 | 82 | 217 | 1.0 | 5.0 | 0.00 | 0.00 | 0.00 | 28 | 1005.6 |
| 20260901232030 | 83 | 117 | 3.0 | 6.0 | 0.00 | 0.00 | 0.00 | 26 | 1005.7 |
| 20260901231628 | 83 | 352 | 1.0 | 4.0 | 0.00 | 0.00 | 0.00 | 26 | 1005.8 |
| 20260901231032 | 83 | 259 | 0.0 | 5.0 | 0.00 | 0.00 | 0.00 | 27 | 1005.8 |